Location: ??????
(41.3164°N, 22.6615°E)
Time: 10:02:14
(UTC+00:00)

Cosmos 1000 Rocket - Pass Details

Date: 16 October 2021
Orbit: 954 x 991 km, 82.9° (Epoch: 07 December)

Event Time Altitude Azimuth Distance (km) Brightness Sun altitude
Rises 17:09:00 0° 352° (N) 3,644 7.6 -16.2°
Reaches altitude 10° 17:11:30 10° 352° (N) 2,697 6.9 -16.6°
Maximum altitude 17:17:41 88° 264° (W) 968 4.4 -17.8°
Drops below altitude 10° 17:23:52 10° 175° (S) 2,699 6.7 -19.0°
Sets 17:26:22 0° 175° (S) 3,647 7.4 -19.4°
